Time[GMT],salinity[psu](1m),sigma_t[kg/m^3](1m),conductivity[msiemens/cm](1m),temperature[C](1m)
2018-10-01 16:00,31.650,23.198,40.020,15.89
2018-10-01 17:00,31.652,23.193,40.050,15.92
2018-10-01 18:00,31.652,23.193,40.050,15.92
2018-10-01 19:00,31.636,23.176,40.050,15.94
2018-10-01 20:00,31.644,23.185,40.050,15.93
2018-10-01 21:00,31.651,23.196,40.030,15.90
2018-10-01 22:00,31.663,23.219,39.990,15.84
2018-10-01 23:00,31.690,23.264,39.920,15.73
2018-10-02 00:00,31.695,23.277,39.890,15.69
2018-10-02 01:00,31.726,23.313,39.870,15.63
2018-10-02 02:00,31.746,23.346,39.820,15.55
2018-10-02 03:00,31.760,23.366,39.800,15.51
2018-10-02 04:00,31.769,23.373,39.810,15.51
2018-10-02 05:00,31.760,23.366,39.800,15.51
2018-10-02 06:00,31.740,23.333,39.850,15.59
2018-10-02 07:00,31.688,23.267,39.900,15.71
2018-10-02 08:00,31.673,23.248,39.910,15.74
2018-10-02 09:00,31.679,23.260,39.890,15.71
2018-10-02 10:00,31.684,23.275,39.850,15.66
2018-10-02 11:00,31.713,23.314,39.810,15.58
2018-10-02 12:00,31.719,23.326,39.790,15.55
2018-10-02 13:00,31.748,23.365,39.750,15.47
2018-10-02 14:00,31.754,23.378,39.720,15.43
2018-10-02 15:00,31.770,23.395,39.720,15.41
2018-10-02 16:00,31.761,23.388,39.710,15.41
2018-10-02 17:00,31.770,23.394,39.730,15.42
2018-10-02 18:00,31.735,23.366,39.690,15.42
2018-10-02 19:00,31.744,23.373,39.700,15.42
2018-10-02 20:00,31.762,23.385,39.730,15.43
2018-10-02 21:00,31.762,23.387,39.720,15.42
2018-10-02 22:00,31.742,23.376,39.680,15.40
2018-10-02 23:00,31.732,23.371,39.660,15.39
2018-10-03 00:00,31.714,23.359,39.630,15.38
2018-10-03 01:00,31.704,23.353,39.610,15.37
2018-10-03 02:00,31.703,23.355,39.600,15.36
2018-10-03 03:00,31.693,23.349,39.580,15.35
2018-10-03 04:00,31.670,23.323,39.590,15.39
2018-10-03 05:00,31.653,23.308,39.580,15.40
2018-10-03 06:00,31.608,23.273,39.530,15.40
2018-10-03 07:00,31.601,23.263,39.540,15.42
2018-10-03 08:00,31.583,23.250,39.520,15.42
2018-10-03 09:00,31.565,23.238,39.490,15.41
2018-10-03 10:00,31.545,23.227,39.450,15.39
2018-10-03 11:00,31.561,23.244,39.450,15.37
2018-10-03 12:00,31.559,23.248,39.420,15.34
2018-10-03 13:00,31.576,23.263,39.430,15.33
2018-10-03 14:00,31.602,23.284,39.460,15.33
2018-10-03 15:00,31.623,23.293,39.510,15.36
2018-10-03 16:00,31.566,23.236,39.500,15.42
2018-10-03 17:00,31.544,23.185,39.620,15.58
2018-10-03 18:00,31.523,23.155,39.650,15.64
2018-10-03 19:00,31.494,23.116,39.690,15.72
2018-10-03 20:00,31.534,23.113,39.870,15.87
2018-10-03 21:00,31.534,23.089,39.970,15.98
2018-10-03 22:00,31.506,23.118,39.730,15.75
2018-10-03 23:00,31.516,23.145,39.660,15.66
2018-10-04 00:00,31.534,23.201,39.510,15.47
2018-10-04 01:00,31.598,23.269,39.500,15.38
2018-10-04 02:00,31.616,23.282,39.530,15.39
2018-10-04 03:00,31.633,23.297,39.540,15.38
2018-10-04 04:00,31.651,23.311,39.560,15.38
2018-10-04 05:00,31.650,23.312,39.550,15.37
2018-10-04 06:00,31.650,23.312,39.550,15.37
2018-10-04 07:00,31.650,23.314,39.540,15.36
2018-10-04 08:00,31.649,23.315,39.530,15.35
2018-10-04 09:00,31.657,23.323,39.530,15.34
2018-10-04 10:00,31.665,23.332,39.530,15.33
2018-10-04 11:00,31.666,23.329,39.550,15.35
2018-10-04 12:00,31.686,23.340,39.590,15.37
2018-10-04 13:00,31.678,23.331,39.590,15.38
2018-10-04 14:00,31.687,23.338,39.600,15.38
2018-10-04 15:00,31.705,23.352,39.620,15.38
2018-10-04 16:00,31.669,23.302,39.670,15.48
2018-10-04 17:00,31.635,23.272,39.650,15.50
2018-10-04 18:00,31.621,23.274,39.580,15.44
2018-10-04 19:00,31.593,23.255,39.540,15.43
2018-10-04 20:00,31.601,23.263,39.540,15.42
2018-10-04 21:00,,,,
2018-10-04 22:00,31.609,23.272,39.540,15.41
2018-10-04 23:00,31.624,23.292,39.520,15.37
2018-10-05 00:00,31.631,23.301,39.510,15.35
2018-10-05 01:00,31.655,23.326,39.510,15.32
2018-10-05 02:00,31.662,23.336,39.500,15.30
2018-10-05 03:00,31.645,23.321,39.490,15.31
2018-10-05 04:00,31.655,23.326,39.510,15.32
2018-10-05 05:00,31.658,23.322,39.540,15.35
2018-10-05 06:00,31.689,23.335,39.620,15.40
2018-10-05 07:00,31.624,23.357,39.250,15.07
2018-10-05 08:00,31.625,23.355,39.260,15.08
2018-10-05 09:00,31.624,23.357,39.250,15.07
2018-10-05 10:00,31.622,23.359,39.230,15.05
2018-10-05 11:00,31.643,23.390,39.190,14.98
2018-10-05 12:00,31.692,23.441,39.190,14.92
2018-10-05 13:00,31.758,23.505,39.210,14.86
2018-10-05 14:00,31.834,23.576,39.240,14.80
2018-10-05 15:00,31.828,23.565,39.260,14.83
2018-10-05 16:00,31.880,23.609,39.300,14.81
2018-10-05 17:00,31.882,23.607,39.320,14.83
2018-10-05 18:00,31.911,23.624,39.370,14.85
2018-10-05 19:00,31.955,23.661,39.410,14.84
2018-10-05 20:00,31.983,23.680,39.450,14.85
2018-10-05 21:00,31.996,23.703,39.410,14.79
2018-10-05 22:00,31.999,23.722,39.340,14.71
2018-10-05 23:00,31.990,23.715,39.330,14.71
2018-10-06 00:00,32.004,23.713,39.400,14.77
2018-10-06 01:00,31.856,23.606,39.210,14.74
2018-10-06 02:00,,,,
2018-10-06 03:00,31.789,23.541,39.190,14.80
2018-10-06 04:00,31.747,23.502,39.170,14.83
2018-10-06 05:00,31.716,23.466,39.190,14.89
2018-10-06 06:00,31.725,23.473,39.200,14.89
2018-10-06 07:00,31.717,23.464,39.200,14.90
2018-10-06 08:00,31.726,23.471,39.210,14.90
2018-10-06 09:00,31.718,23.463,39.210,14.91
2018-10-06 10:00,31.711,23.452,39.230,14.94
2018-10-06 11:00,31.719,23.460,39.230,14.93
2018-10-06 12:00,31.726,23.471,39.210,14.90
2018-10-06 13:00,31.728,23.468,39.230,14.92
2018-10-06 14:00,31.711,23.430,39.320,15.04
2018-10-06 15:00,31.674,23.361,39.450,15.23
2018-10-06 16:00,31.669,23.346,39.490,15.28
2018-10-06 17:00,31.670,23.323,39.590,15.39
2018-10-06 18:00,31.645,23.299,39.580,15.41
2018-10-06 19:00,31.651,23.332,39.470,15.28
2018-10-06 20:00,31.674,23.361,39.450,15.23
2018-10-06 21:00,31.678,23.376,39.400,15.17
2018-10-06 22:00,31.698,23.409,39.350,15.09
2018-10-06 23:00,31.704,23.420,39.330,15.06
2018-10-07 00:00,31.713,23.427,39.340,15.06
2018-10-07 01:00,31.709,23.411,39.390,15.12
2018-10-07 02:00,31.725,23.428,39.390,15.10
2018-10-07 03:00,31.741,23.446,39.380,15.07
2018-10-07 04:00,,,,
2018-10-07 05:00,31.729,23.467,39.240,14.93
2018-10-07 06:00,31.730,23.464,39.260,14.95
2018-10-07 07:00,31.730,23.464,39.260,14.95
2018-10-07 08:00,31.738,23.472,39.260,14.94
2018-10-07 09:00,,,,
2018-10-07 10:00,31.738,23.474,39.250,14.93
2018-10-07 11:00,31.747,23.481,39.260,14.93
2018-10-07 12:00,31.738,23.472,39.260,14.94
2018-10-07 13:00,31.739,23.471,39.270,14.95
2018-10-07 14:00,31.743,23.465,39.310,14.99
2018-10-07 15:00,31.746,23.459,39.350,15.03
2018-10-07 16:00,31.773,23.458,39.470,15.13
2018-10-07 17:00,31.746,23.392,39.630,15.34
2018-10-07 18:00,31.756,23.420,39.560,15.25
2018-10-07 19:00,,,,
2018-10-07 20:00,31.747,23.436,39.450,15.14
2018-10-07 21:00,31.727,23.403,39.500,15.22
2018-10-07 22:00,31.711,23.408,39.410,15.14
2018-10-07 23:00,31.699,23.406,39.370,15.11
2018-10-08 00:00,31.706,23.417,39.350,15.08
2018-10-08 01:00,31.713,23.427,39.340,15.06
2018-10-08 02:00,31.712,23.429,39.330,15.05
2018-10-08 03:00,31.721,23.435,39.340,15.05
2018-10-08 04:00,,,,
2018-10-08 05:00,31.745,23.461,39.340,15.02
2018-10-08 06:00,31.746,23.459,39.350,15.03
2018-10-08 07:00,31.753,23.469,39.340,15.01
2018-10-08 08:00,31.759,23.482,39.310,14.97
2018-10-08 09:00,31.740,23.469,39.280,14.96
2018-10-08 10:00,31.709,23.456,39.200,14.91
2018-10-08 11:00,31.702,23.467,39.120,14.83
2018-10-08 12:00,31.713,23.493,39.060,14.75
2018-10-08 13:00,31.730,23.508,39.070,14.74
2018-10-08 14:00,31.737,23.518,39.060,14.72
2018-10-08 15:00,31.810,23.595,39.050,14.62
2018-10-08 16:00,31.836,23.617,39.070,14.61
2018-10-08 17:00,31.838,23.615,39.090,14.63
2018-10-08 18:00,31.798,23.571,39.100,14.69
2018-10-08 19:00,31.795,23.575,39.070,14.66
2018-10-08 20:00,31.786,23.568,39.060,14.66
2018-10-08 21:00,31.777,23.561,39.050,14.66
2018-10-08 22:00,31.776,23.563,39.040,14.65
2018-10-08 23:00,31.766,23.557,39.020,14.64
2018-10-09 00:00,31.751,23.538,39.040,14.68
2018-10-09 02:00,31.731,23.505,39.090,14.76
2018-10-09 03:00,31.732,23.504,39.100,14.77
2018-10-09 04:00,31.735,23.521,39.040,14.70
2018-10-09 05:00,31.727,23.533,38.950,14.61
2018-10-09 06:00,31.708,23.500,39.010,14.70
2018-10-09 07:00,31.678,23.462,39.040,14.77
2018-10-09 08:00,31.683,23.455,39.090,14.82
2018-10-09 09:00,31.693,23.460,39.110,14.83
2018-10-09 10:00,31.720,23.481,39.140,14.83
2018-10-09 11:00,,,,
2018-10-09 12:00,31.746,23.504,39.160,14.82
2018-10-09 13:00,31.755,23.511,39.170,14.82
2018-10-09 14:00,31.744,23.485,39.230,14.90
2018-10-09 15:00,31.745,23.462,39.330,15.01
2018-10-09 16:00,31.760,23.457,39.420,15.09
2018-10-09 17:00,31.749,23.432,39.480,15.17
2018-10-09 18:00,31.762,23.432,39.530,15.21
2018-10-09 19:00,31.750,23.408,39.580,15.28
2018-10-09 20:00,31.737,23.385,39.620,15.34
2018-10-09 21:00,31.740,23.403,39.560,15.27
2018-10-09 22:00,31.729,23.399,39.530,15.25
2018-10-09 23:00,31.739,23.404,39.550,15.26
2018-10-10 00:00,31.730,23.397,39.540,15.26
2018-10-10 01:00,31.730,23.397,39.540,15.26
2018-10-10 02:00,31.739,23.404,39.550,15.26
2018-10-10 03:00,31.746,23.414,39.540,15.24
2018-10-10 04:00,31.753,23.426,39.520,15.21
2018-10-10 05:00,31.778,23.449,39.530,15.19
2018-10-10 06:00,31.789,23.453,39.560,15.21
2018-10-10 07:00,31.800,23.455,39.600,15.24
2018-10-10 08:00,,,,
2018-10-10 09:00,31.802,23.474,39.530,15.16
2018-10-10 10:00,31.747,23.436,39.450,15.14
2018-10-10 11:00,31.723,23.409,39.460,15.18
2018-10-10 12:00,31.718,23.396,39.490,15.22
2018-10-10 13:00,31.728,23.400,39.520,15.24
2018-10-10 14:00,31.751,23.407,39.590,15.29
2018-10-10 15:00,31.759,23.391,39.690,15.39
2018-10-10 16:00,31.798,23.389,39.870,15.54
2018-10-10 17:00,31.785,23.366,39.910,15.60
2018-10-10 18:00,31.744,23.303,39.990,15.74
2018-10-10 19:00,31.741,23.259,40.160,15.93
2018-10-10 20:00,31.670,23.159,40.260,16.13
2018-10-10 21:00,31.657,23.185,40.100,15.97
2018-10-10 22:00,31.659,23.227,39.940,15.79
2018-10-10 23:00,31.659,23.229,39.930,15.78
2018-10-11 00:00,31.656,23.233,39.900,15.75
2018-10-11 01:00,31.688,23.220,40.090,15.92
2018-10-11 02:00,31.699,23.269,39.940,15.74
2018-10-11 03:00,31.714,23.335,39.730,15.49
2018-10-11 04:00,31.718,23.351,39.680,15.43
2018-10-11 05:00,31.740,23.381,39.650,15.37
2018-10-11 06:00,31.733,23.369,39.670,15.40
2018-10-11 07:00,31.735,23.388,39.600,15.32
2018-10-11 08:00,31.737,23.409,39.520,15.23
2018-10-11 09:00,31.749,23.432,39.480,15.17
2018-10-11 10:00,31.806,23.514,39.380,14.99
2018-10-11 11:00,31.880,23.611,39.290,14.80
2018-10-11 12:00,31.928,23.640,39.380,14.84
2018-10-11 13:00,31.970,23.681,39.390,14.80
2018-10-11 14:00,31.977,23.692,39.370,14.77
2018-10-11 15:00,32.004,23.713,39.400,14.77
2018-10-11 16:00,31.994,23.707,39.380,14.76
2018-10-11 17:00,31.985,23.700,39.370,14.76
2018-10-11 18:00,31.939,23.667,39.310,14.75
2018-10-11 19:00,31.902,23.641,39.260,14.74
2018-10-11 20:00,31.881,23.631,39.210,14.71
2018-10-11 21:00,31.890,23.638,39.220,14.71
2018-10-11 22:00,31.802,23.585,39.060,14.64
2018-10-11 23:00,31.863,23.638,39.100,14.61
2018-10-12 00:00,31.906,23.678,39.120,14.58
2018-10-12 01:00,31.975,23.718,39.250,14.64
2018-10-12 02:00,32.022,23.750,39.320,14.66
2018-10-12 03:00,32.037,23.770,39.300,14.62
2018-10-12 04:00,32.035,23.773,39.280,14.60
2018-10-12 05:00,32.044,23.780,39.290,14.60
2018-10-12 06:00,32.026,23.766,39.270,14.60
2018-10-12 07:00,32.016,23.760,39.250,14.59
2018-10-12 08:00,31.988,23.741,39.210,14.58
2018-10-12 09:00,31.988,23.741,39.210,14.58
2018-10-12 10:00,31.957,23.725,39.140,14.54
2018-10-12 11:00,31.968,23.730,39.170,14.56
2018-10-12 12:00,31.979,23.734,39.200,14.58
2018-10-12 13:00,31.998,23.746,39.230,14.59
2018-10-12 14:00,31.971,23.724,39.210,14.60
2018-10-12 15:00,31.954,23.708,39.200,14.61
2018-10-12 16:00,31.954,23.708,39.200,14.61
2018-10-12 17:00,31.946,23.700,39.200,14.62
2018-10-12 18:00,31.938,23.690,39.210,14.64
2018-10-12 19:00,31.941,23.686,39.240,14.67
2018-10-12 20:00,31.929,23.683,39.200,14.64
2018-10-12 21:00,31.928,23.684,39.190,14.63
2018-10-12 22:00,31.928,23.686,39.180,14.62
2018-10-12 23:00,31.936,23.694,39.180,14.61
2018-10-13 00:00,31.941,23.709,39.140,14.56
2018-10-13 01:00,31.933,23.699,39.150,14.58
2018-10-13 02:00,31.931,23.702,39.130,14.56
2018-10-13 03:00,31.926,23.689,39.160,14.60
2018-10-13 04:00,31.941,23.709,39.140,14.56
2018-10-13 05:00,31.933,23.699,39.150,14.58
2018-10-13 06:00,31.931,23.703,39.120,14.55
2018-10-13 07:00,31.931,23.703,39.120,14.55
2018-10-13 08:00,31.939,23.711,39.120,14.54
2018-10-13 09:00,31.939,23.711,39.120,14.54
2018-10-13 10:00,31.945,23.723,39.100,14.51
2018-10-13 11:00,31.945,23.724,39.090,14.50
2018-10-13 12:00,31.934,23.720,39.060,14.48
2018-10-13 13:00,31.943,23.727,39.070,14.48
2018-10-13 14:00,31.931,23.724,39.030,14.45
2018-10-13 15:00,31.932,23.723,39.040,14.46
2018-10-13 16:00,31.944,23.726,39.080,14.49
2018-10-13 17:00,31.951,23.735,39.070,14.47
2018-10-13 19:00,31.951,23.735,39.070,14.47
2018-10-13 20:00,31.950,23.737,39.060,14.46
2018-10-13 21:00,31.948,23.740,39.040,14.44
2018-10-13 22:00,31.946,23.744,39.010,14.41
2018-10-13 23:00,31.945,23.745,39.000,14.40
2018-10-14 00:00,31.963,23.759,39.020,14.40
2018-10-14 01:00,31.897,23.756,38.740,14.17
2018-10-14 02:00,31.818,23.708,38.600,14.11
2018-10-14 03:00,31.853,23.739,38.620,14.09
2018-10-14 04:00,31.875,23.788,38.500,13.93
2018-10-14 05:00,31.872,23.813,38.380,13.80
2018-10-14 06:00,31.876,23.827,38.330,13.74
2018-10-14 07:00,31.892,23.844,38.330,13.72
2018-10-14 08:00,31.917,23.870,38.330,13.69
2018-10-14 09:00,31.925,23.879,38.320,13.67
2018-10-14 10:00,31.939,23.900,38.290,13.62
2018-10-14 11:00,31.901,23.873,38.240,13.61
2018-10-14 12:00,31.900,23.874,38.230,13.60
2018-10-14 13:00,31.898,23.877,38.210,13.58
2018-10-14 14:00,31.878,23.864,38.180,13.57
2018-10-14 15:00,31.853,23.838,38.180,13.60
2018-10-14 16:00,31.849,23.825,38.220,13.65
2018-10-14 17:00,31.848,23.806,38.300,13.74
2018-10-14 18:00,31.843,23.794,38.330,13.78
2018-10-14 19:00,31.844,23.791,38.350,13.80
2018-10-14 20:00,31.872,23.833,38.290,13.70
2018-10-14 21:00,31.878,23.844,38.270,13.67
2018-10-14 22:00,31.861,23.828,38.260,13.68
2018-10-14 23:00,31.862,23.827,38.270,13.69
2018-10-15 00:00,31.847,23.807,38.290,13.73
2018-10-15 01:00,31.847,23.807,38.290,13.73
2018-10-15 02:00,31.847,23.807,38.290,13.73
2018-10-15 03:00,31.849,23.805,38.310,13.75
2018-10-15 04:00,31.854,23.817,38.280,13.71
2018-10-15 05:00,31.854,23.818,38.270,13.70
2018-10-15 06:00,31.853,23.820,38.260,13.69
2018-10-15 07:00,31.862,23.827,38.270,13.69
2018-10-15 08:00,31.896,23.859,38.280,13.66
2018-10-15 09:00,31.887,23.852,38.270,13.66
2018-10-15 10:00,31.870,23.835,38.270,13.68
2018-10-15 11:00,31.877,23.846,38.250,13.65
2018-10-15 12:00,31.890,23.867,38.220,13.60
2018-10-15 13:00,31.896,23.879,38.190,13.56
2018-10-15 14:00,31.892,23.884,38.150,13.52
2018-10-15 15:00,31.902,23.890,38.170,13.53
2018-10-15 16:00,31.888,23.871,38.190,13.57
2018-10-15 17:00,31.875,23.849,38.230,13.63
2018-10-15 18:00,31.888,23.851,38.280,13.67
2018-10-15 19:00,31.879,23.842,38.280,13.68
2018-10-15 20:00,31.899,23.855,38.310,13.69
2018-10-15 21:00,31.903,23.850,38.350,13.73
2018-10-15 22:00,31.904,23.849,38.360,13.74
2018-10-15 23:00,31.894,23.842,38.350,13.74
2018-10-16 00:00,31.878,23.825,38.350,13.76
2018-10-16 01:00,31.868,23.818,38.340,13.76
2018-10-16 02:00,31.868,23.818,38.340,13.76
2018-10-16 03:00,31.877,23.826,38.340,13.75
2018-10-16 04:00,,,,
2018-10-16 05:00,31.859,23.811,38.330,13.76
2018-10-16 06:00,31.868,23.819,38.330,13.75
2018-10-16 07:00,31.882,23.839,38.310,13.71
2018-10-16 08:00,31.927,23.877,38.340,13.69
2018-10-16 09:00,31.985,23.936,38.340,13.62
2018-10-16 10:00,32.048,23.989,38.390,13.60
2018-10-16 11:00,32.083,24.022,38.400,13.57
2018-10-16 12:00,32.089,24.033,38.380,13.54
2018-10-16 14:00,32.135,24.070,38.420,13.53
2018-10-16 15:00,32.132,24.074,38.390,13.50
2018-10-16 16:00,32.140,24.084,38.380,13.48
2018-10-16 17:00,32.143,24.080,38.410,13.51
2018-10-16 18:00,32.170,24.103,38.430,13.50
2018-10-16 19:00,32.179,24.110,38.440,13.50
2018-10-16 20:00,32.187,24.118,38.440,13.49
2018-10-16 21:00,32.204,24.136,38.440,13.47
2018-10-16 22:00,32.202,24.138,38.420,13.45
2018-10-16 23:00,32.186,24.121,38.420,13.47
2018-10-17 00:00,32.177,24.113,38.420,13.48
2018-10-17 01:00,32.148,24.092,38.380,13.47
2018-10-17 02:00,32.139,24.085,38.370,13.47
2018-10-17 03:00,32.119,24.072,38.340,13.46
2018-10-17 04:00,32.092,24.049,38.320,13.47
2018-10-17 05:00,32.082,24.043,38.300,13.46
2018-10-17 06:00,32.091,24.050,38.310,13.46
2018-10-17 07:00,32.090,24.053,38.290,13.44
2018-10-17 08:00,32.105,24.071,38.280,13.41
2018-10-17 09:00,32.105,24.072,38.270,13.40
2018-10-17 10:00,32.105,24.072,38.270,13.40
2018-10-17 11:00,32.120,24.091,38.260,13.37
2018-10-17 12:00,32.111,24.083,38.250,13.37
2018-10-17 13:00,32.111,24.083,38.250,13.37
2018-10-17 14:00,32.086,24.058,38.250,13.40
2018-10-17 15:00,32.078,24.048,38.260,13.42
2018-10-17 16:00,32.054,24.021,38.270,13.46
2018-10-17 17:00,,,,
2018-10-17 18:00,32.021,23.988,38.270,13.50
2018-10-17 19:00,32.003,23.972,38.260,13.51
2018-10-17 20:00,32.021,23.988,38.270,13.50
2018-10-17 21:00,32.025,24.001,38.230,13.45
2018-10-17 22:00,32.018,24.011,38.150,13.37
2018-10-17 23:00,31.979,24.003,38.010,13.26
2018-10-18 00:00,31.951,24.001,37.890,13.16
2018-10-18 01:00,31.956,24.013,37.860,13.12
2018-10-18 02:00,31.958,24.011,37.880,13.14
2018-10-18 03:00,31.976,24.026,37.890,13.13
2018-10-18 04:00,31.973,24.030,37.860,13.10
2018-10-18 05:00,31.981,24.040,37.850,13.08
2018-10-18 06:00,31.987,24.051,37.830,13.05
2018-10-18 07:00,31.982,24.057,37.780,13.00
2018-10-18 08:00,32.013,24.075,37.840,13.03
2018-10-18 09:00,32.056,24.098,37.930,13.08
2018-10-18 10:00,32.086,24.117,37.980,13.10
2018-10-18 11:00,32.104,24.133,37.990,13.09
2018-10-18 12:00,32.089,24.133,37.920,13.03
2018-10-18 13:00,32.073,24.134,37.840,12.96
2018-10-18 14:00,32.054,24.138,37.740,12.87
2018-10-18 15:00,32.027,24.134,37.630,12.78
2018-10-18 16:00,32.027,24.134,37.630,12.78
2018-10-18 17:00,32.057,24.153,37.680,12.80
2018-10-18 18:00,32.095,24.163,37.810,12.90
2018-10-18 19:00,32.140,24.183,37.930,12.98
2018-10-18 20:00,32.189,24.218,37.990,12.99
2018-10-18 21:00,32.233,24.259,38.010,12.96
2018-10-18 22:00,32.276,24.300,38.020,12.92
2018-10-18 23:00,32.274,24.304,37.990,12.89
2018-10-19 00:00,32.279,24.316,37.960,12.85
2018-10-19 01:00,32.280,24.315,37.970,12.86
2018-10-19 02:00,32.278,24.318,37.940,12.83
2018-10-19 03:00,32.277,24.320,37.930,12.82
2018-10-19 04:00,32.285,24.328,37.930,12.81
2018-10-19 05:00,32.282,24.332,37.900,12.78
2018-10-19 06:00,32.287,24.345,37.860,12.73
2018-10-19 07:00,32.285,24.348,37.840,12.71
2018-10-19 08:00,32.284,24.349,37.830,12.70
2018-10-19 09:00,32.281,24.354,37.790,12.66
2018-10-19 10:00,32.278,24.357,37.760,12.63
2018-10-19 11:00,32.266,24.352,37.730,12.61
2018-10-19 12:00,32.264,24.356,37.700,12.58
2018-10-19 13:00,32.252,24.351,37.670,12.56
2018-10-19 14:00,32.244,24.342,37.670,12.57
2018-10-19 15:00,32.206,24.311,37.640,12.58
2018-10-19 16:00,32.166,24.284,37.580,12.56
2018-10-19 17:00,32.155,24.279,37.550,12.54
2018-10-19 18:00,,,,
2018-10-19 19:00,32.134,24.285,37.420,12.42
2018-10-19 20:00,32.143,24.293,37.430,12.42
2018-10-19 21:00,32.131,24.306,37.310,12.30
2018-10-19 22:00,32.164,24.377,37.130,12.06
2018-10-19 23:00,32.153,24.336,37.270,12.23
2018-10-20 00:00,32.171,24.388,37.110,12.03
2018-10-20 01:00,32.184,24.409,37.070,11.97
2018-10-20 02:00,32.180,24.413,37.030,11.93
2018-10-20 03:00,32.179,24.431,36.940,11.83
2018-10-20 04:00,32.183,24.427,36.980,11.87
2018-10-20 05:00,,,,
2018-10-20 06:00,32.188,24.423,37.020,11.91
2018-10-20 07:00,32.192,24.436,36.980,11.86
2018-10-20 08:00,32.216,24.463,36.960,11.81
2018-10-20 09:00,,,,
2018-10-20 10:00,32.234,24.479,36.970,11.80
2018-10-20 11:00,32.228,24.469,36.990,11.83
2018-10-20 12:00,32.245,24.486,36.990,11.81
2018-10-20 14:00,32.173,24.454,36.800,11.68
2018-10-20 15:00,32.178,24.450,36.840,11.72
2018-10-20 16:00,32.183,24.445,36.890,11.77
2018-10-20 17:00,32.192,24.452,36.900,11.77
2018-10-20 18:00,32.198,24.464,36.870,11.73
2018-10-20 19:00,32.229,24.450,37.090,11.94
2018-10-20 20:00,32.236,24.442,37.160,12.01
2018-10-20 21:00,32.230,24.449,37.100,11.95
2018-10-20 22:00,32.212,24.467,36.920,11.77
2018-10-20 23:00,32.206,24.474,36.860,11.71
2018-10-21 00:00,32.204,24.441,37.010,11.88
2018-10-21 01:00,32.188,24.423,37.020,11.91
2018-10-21 02:00,32.157,24.384,37.060,11.99
2018-10-21 03:00,32.144,24.363,37.100,12.05
2018-10-21 04:00,32.119,24.336,37.110,12.09
2018-10-21 05:00,32.092,24.295,37.180,12.20
2018-10-21 06:00,32.100,24.304,37.170,12.18
2018-10-21 07:00,31.996,24.203,37.160,12.29
2018-10-21 08:00,31.883,24.043,37.380,12.67
2018-10-21 09:00,31.898,24.063,37.360,12.63
2018-10-21 10:00,31.938,24.125,37.260,12.47
2018-10-21 11:00,31.948,24.149,37.190,12.38
2018-10-21 12:00,32.011,24.222,37.140,12.25
2018-10-21 13:00,32.001,24.198,37.210,12.34
2018-10-21 15:00,31.826,23.982,37.400,12.76
2018-10-21 16:00,31.775,23.931,37.400,12.82
2018-10-21 17:00,31.822,23.986,37.360,12.72
2018-10-21 18:00,31.870,24.039,37.340,12.64
2018-10-21 19:00,31.941,24.121,37.290,12.50
2018-10-21 20:00,32.001,24.198,37.210,12.34
2018-10-21 21:00,32.013,24.220,37.160,12.27
2018-10-21 22:00,32.031,24.253,37.090,12.17
2018-10-21 23:00,32.039,24.246,37.160,12.24
2018-10-22 00:00,31.968,24.163,37.220,12.39
2018-10-22 01:00,31.890,24.070,37.290,12.56
2018-10-22 02:00,31.870,24.039,37.340,12.64
2018-10-22 03:00,31.887,24.074,37.260,12.53
2018-10-22 04:00,31.933,24.147,37.130,12.33
2018-10-22 05:00,32.000,24.251,36.950,12.05
2018-10-22 06:00,32.054,24.316,36.900,11.93
2018-10-22 07:00,32.076,24.345,36.860,11.86
2018-10-22 08:00,32.107,24.383,36.830,11.79
2018-10-22 09:00,32.098,24.375,36.820,11.79
2018-10-22 10:00,32.108,24.382,36.840,11.80
2018-10-22 11:00,32.137,24.404,36.870,11.80
2018-10-22 12:00,32.098,24.341,36.990,11.98
2018-10-22 13:00,32.028,24.239,37.140,12.23
2018-10-22 14:00,32.011,24.205,37.220,12.34
2018-10-22 15:00,32.012,24.204,37.230,12.35
2018-10-22 16:00,32.021,24.212,37.240,12.35
2018-10-22 17:00,32.054,24.247,37.230,12.30
2018-10-22 18:00,32.067,24.268,37.190,12.24
2018-10-22 19:00,32.071,24.282,37.140,12.18
2018-10-22 20:00,32.130,24.378,36.960,11.91
2018-10-22 21:00,32.144,24.398,36.930,11.86
2018-10-22 22:00,32.156,24.420,36.880,11.79
2018-10-22 23:00,32.181,24.464,36.790,11.66
2018-10-23 00:00,32.075,24.295,37.100,12.13
2018-10-23 01:00,32.000,24.199,37.200,12.33
2018-10-23 02:00,32.046,24.272,37.070,12.13
2018-10-23 03:00,32.067,24.303,37.020,12.05
2018-10-23 04:00,32.071,24.299,37.060,12.09
2018-10-23 05:00,32.073,24.297,37.080,12.11
2018-10-23 06:00,32.063,24.272,37.150,12.20
2018-10-23 07:00,32.062,24.274,37.140,12.19
2018-10-23 09:00,32.156,24.437,36.800,11.70
2018-10-23 10:00,32.168,24.459,36.750,11.63
2018-10-23 11:00,32.125,24.449,36.590,11.50
2018-10-23 12:00,32.115,24.441,36.580,11.50
2018-10-23 13:00,32.123,24.451,36.570,11.48
2018-10-23 14:00,32.052,24.301,36.960,12.00
2018-10-23 15:00,32.027,24.223,37.210,12.31
2018-10-23 16:00,32.019,24.214,37.220,12.33
2018-10-23 17:00,32.027,24.241,37.130,12.22
2018-10-23 18:00,32.048,24.271,37.080,12.14
2018-10-23 19:00,32.086,24.318,37.040,12.05
2018-10-23 20:00,32.095,24.344,36.960,11.95
2018-10-23 21:00,32.098,24.357,36.910,11.89
2018-10-23 22:00,32.112,24.378,36.870,11.83
2018-10-23 23:00,32.147,24.428,36.800,11.71
2018-10-24 00:00,32.152,24.538,36.280,11.12
2018-10-24 01:00,32.066,24.420,36.450,11.41
2018-10-24 02:00,32.064,24.389,36.590,11.57
2018-10-24 03:00,32.062,24.375,36.650,11.64
2018-10-24 04:00,32.051,24.352,36.710,11.72
2018-10-24 05:00,32.062,24.358,36.730,11.73
2018-10-24 06:00,32.074,24.397,36.600,11.57